FLOCK 2K-25 (42884 NORAD) Tracking and Keplerian Element Data

This shows tracking and keplerian element data for the satellite.

Feedback or suggestion? Click here.




ElementValue
Catalog42884
NameFLOCK 2K-25
Epoch Orbit21289
Epoch Day119.82566214
Epoch Year2021
RAAN335.9398
Inclination96.8542
Eccentricity0.0007903
Argument of Perigee237.9222
Mean Anonmoly122.1261
Mean Motion15.45291323
Decay Rate0.00011104
L11 42884U 17042BM 21119.82566214 .00011104 00000-0 23461-3 0 9994
L22 42884 96.8542 335.9398 0007903 237.9222 122.1261 15.45291323212890

Live tracking and technical data element details for FLOCK 2K-25 (NORAD 42884). FLOCK 2K-25 can be tracked NOW for your location showing map with azimuth and elevation plus other details from your city location.

Track the satellite on the map from your city or location and see movement details for azimuth, elevation, latitude, longitude, range, height, and movement on the map or in text.







IsCatalogInMostPopularTable: catalog: 42884, numindb: 620
Update: records affected: 1



GetName: 42884 FLOCK 2K-25

Hit Count: updated at: Tue, 28 Sep 2021 15:54:43 GMT